CAPE
218 1 33 27 36 150 117 76 142 190 119 111 53 81 109 100 29 23 11 41 137 226 0 0 0 0 0 0 0 0 0 0 0 0 0 0 0 0 0 0 115 90 0 186
4 5 27 148 118 45 92 95 94 49 185 150 177 160 402 225 49 12 0 3 97 134 158 0 0 0 0 0 0 0 0 0 3 5 0 0 0 0 0 0 5 177 202 320
7 37 66 216 106 171 47 41 0 4 206 124 13 0 351 345 114 19 56 9 96 123 223 97 0 0 0 0 0 0 0 0 13 3 0 0 0 0 0 0 12 369 407 581
22 110 355 305 322 138 110 29 39 128 121 32 67 7 69 271 253 113 122 145 111 236 261 162 177 0 0 0 0 0 0 24 1 0 0 0 0 0 0 0 43 621 830 849
281 0 0 24 35 9 0 0 2 11 0 0 13 0 0 11 78 0 0 47 126 409 417 80 288 57 0 0 0 0 0 18 45 22 0 0 0 0 52 606 1063 1194 1231 1152
113 0 0 81 151 32 0 0 0 1 0 0 0 0 0 0 0 0 0 138 353 418 381 273 264 169 307 4 0 0 1 92 59 83 0 0 0 13 511 489 724 514 158 115
0 0 0 72 84 0 0 0 2 2 2 1 0 0 0 0 0 0 0 5 75 259 416 434 329 215 570 205 34 32 0 18 34 0 49 0 67 176 293 349 51 61 2 13
1 10 34 38 2 0 0 0 0 0 0 0 0 0 0 0 0 0 0 38 148 359 455 409 336 404 863 990 646 133 17 71 94 36 79 170 158 156 87 43 37 47 50 35
35 46 19 19 21 0 0 0 0 0 0 0 0 0 0 0 0 0 0 102 103 487 700 542 561 591 803 1009 1072 760 415 232 344 143 4 161 16 8 6 26 32 30 36 26
35 9 0 0 0 0 0 0 0 0 0 0 0 0 0 0 0 0 0 115 173 153 358 564 721 728 772 659 396 417 156 5 32 471 190 125 0 0 0 0 0 4 0 17
0 0 0 0 0 0 0 0 0 0 0 0 0 0 0 0 0 0 0 153 346 444 742 1062 1063 952 894 847 723 671 801 793 763 863 336 134 27 0 3 2 0 1 0 0
15 0 0 0 0 0 0 0 0 0 0 0 0 0 0 0 0 0 7 464 715 826 823 710 751 997 926 669 509 331 185 219 641 570 744 406 213 156 90 4 0 0 0 0
0 0 0 0 0 0 0 0 0 0 0 0 0 0 0 0 0 113 936 1035 936 758 653 664 622 691 627 300 63 0 31 8 32 272 545 596 442 286 46 1 11 1 0 0
0 0 0 0 0 0 0 0 0 0 0 0 0 0 0 17 314 846 1001 892 884 875 635 503 520 568 336 110 4 0 0 0 0 73 576 935 878 289 16 80 2 1 0 2
0 0 0 0 0 0 0 0 0 0 0 0 0 0 1 5 56 308 797 1016 1106 1177 762 477 438 564 221 47 0 0 0 0 0 24 751 898 510 289 256 129 52 74 52 14
0 0 0 0 0 0 0 0 0 0 0 0 0 0 0 0 0 0 2 3 301 1185 1149 723 592 493 387 96 0 0 0 0 0 56 249 582 511 436 326 312 190 103 82 90
0 0 0 0 0 0 0 0 0 0 0 0 0 0 0 0 3 284 231 55 127 1056 1079 863 738 678 499 154 6 0 0 0 1 0 2 124 336 541 238 173 82 86 102 11
0 0 0 0 0 0 0 0 0 0 0 0 0 0 0 1 219 163 0 0 0 0 333 799 755 512 449 138 0 0 0 0 0 2 1 1 0 7 134 0 2 1 2 6
0 0 0 0 0 0 0 0 0 0 0 0 0 0 0 159 84 143 19 22 1 0 0 0 0 588 345 127 0 0 0 0 1 0 0 1 1 1 1 1 1 1 1 1
0 0 0 0 0 0 0 0 0 0 0 0 0 0 0 0 0 0 0 0 0 0 0 589 769 416 339 113 0 0 0 0 0 0 0 0 0 0 1 0 0 0 1 0
0 0 0 0 0 0 0 0 0 0 0 3 0 0 0 0 0 0 0 0 0 0 65 523 703 500 473 28 1 1 0 0 0 0 0 0 0 0 0 0 0 0 3 9
0 0 0 0 0 0 0 0 0 0 0 0 0 0 0 0 0 0 0 0 0 34 284 843 742 599 450 150 43 39 5 1 0 0 0 0 0 0 2 7 2 0 8 11
0 0 0 0 0 0 0 0 0 0 0 0 0 0 0 0 0 0 0 0 0 0 18 1021 913 761 798 334 117 35 72 2 2 0 0 0 0 0 0 0 0 9 13 6
0 0 0 0 0 0 0 0 0 0 0 0 0 0 0 0 0 0 0 0 0 19 738 992 832 699 683 283 375 140 102 0 0 0 0 0 0 0 0 0 1 0 0 0
0 0 0 0 0 0 0 0 0 0 0 0 0 0 0 0 0 18 16 8 0 393 799 527 481 311 355 382 580 284 208 38 4 0 0 0 0 0 0 0 0 0 0 0
0 0 0 0 0 0 0 0 0 0 0 0 0 0 0 0 0 4 43 42 236 686 812 591 214 0 0 0 494 386 270 291 143 43 5 0 0 0 0 0 0 0 0 0
CIN
-362 -75 -122 -163 -212 -226 -239 -214 -193 -143 -236 -110 -145 -211 -322 -368 -384 -385 -338 -306 -289 -265 0 0 0 0 0 0 0 0 0 0 0 0 0 0 0 0 0 0 -149 -165 0 -151
-152 -77 -182 -178 -154 -182 -249 -197 -179 -144 -121 -107 -213 -185 -266 -306 -360 -388 0 -135 -254 -267 -252 0 0 0 0 0 0 0 0 0 -118 -273 0 0 0 0 0 0 -54 -140 -143 -143
-172 -77 -122 -160 -168 -132 -178 -208 0 -21 -102 -143 -200 0 -263 -280 -349 -232 -384 -484 -477 -371 -298 -351 0 0 0 0 0 0 0 -143 -379 -230 0 0 0 0 0 0 -94 -152 -147 -125
-247 -160 -69 -34 -39 -144 -113 -128 -99 -60 -73 -52 -162 -24 -261 -302 -306 -368 -373 -304 -383 -418 -337 -389 -409 0 0 0 0 0 0 -505 -78 0 0 0 0 0 0 0 -206 -132 -148 -143
-99 0 0 -62 -15 -35 0 -7 -24 -104 -9 -2 -42 0 0 -86 -289 0 0 -316 -326 -348 -303 -433 -391 -515 0 0 0 0 0 -618 -560 -447 0 0 0 0 -297 -145 -123 -149 -182 -167
-132 0 0 -57 -41 -90 0 0 0 -115 0 0 0 0 0 0 0 0 0 -149 -183 -229 -291 -318 -303 -454 -448 -98 0 0 -176 -549 -641 -510 0 0 0 -163 -211 -179 -181 -195 -217 -233
0 0 0 -86 -71 0 0 0 -23 -24 -46 -58 0 0 0 0 0 0 0 -84 -314 -271 -309 -301 -412 -415 -390 -520 -695 -756 0 -619 -587 0 -492 0 -432 -294 -222 -188 -414 -288 -72 -260
-30 -39 -95 -68 -11 0 0 0 0 0 0 0 0 0 0 0 0 0 0 -425 -376 -284 -293 -327 -485 -454 -371 -465 -547 -615 -438 -588 -512 -528 -444 -437 -354 -310 -326 -482 -444 -365 -289 -291
-123 -96 -137 -82 -76 0 0 0 0 0 0 0 0 0 0 0 0 0 0 -344 -351 -290 -287 -340 -422 -418 -402 -371 -378 -423 -415 -490 -381 -404 -54 -382 -376 -398 -383 -474 -437 -413 -329 -270
-71 -46 0 0 0 0 0 0 0 0 0 0 0 0 0 0 0 0 0 -308 -331 -448 -400 -344 -360 -393 -404 -414 -499 -412 -462 -95 -161 -240 -289 -281 0 0 0 0 0 -480 0 -376
0 0 0 0 0 0 0 0 0 0 0 0 0 0 0 0 0 0 0 -442 -330 -319 -326 -288 -292 -304 -285 -253 -274 -262 -246 -243 -205 -143 -217 -297 -378 0 -375 0 0 -436 0 0
-134 0 0 0 0 0 0 0 0 0 0 0 0 0 0 0 0 0 -543 -354 -318 -317 -317 -344 -353 -296 -271 -272 -253 -269 -273 -220 -182 -205 -154 -224 -290 -237 -168 -4 0 0 0 0
0 0 0 0 0 0 0 0 0 0 0 0 0 0 0 0 0 -500 -306 -275 -278 -333 -379 -398 -386 -350 -370 -390 -535 0 -324 -120 -298 -171 -112 -95 -145 -151 -226 0 -175 0 0 0
0 0 0 0 0 0 0 0 0 0 0 0 0 0 0 -300 -331 -277 -255 -277 -270 -319 -385 -412 -395 -367 -451 -540 -164 0 0 0 0 -300 -114 -24 -24 -81 -101 -115 -7 -25 0 -79
0 0 0 0 0 0 0 0 0 0 0 0 0 0 -116 -246 -508 -388 -271 -280 -278 -263 -345 -357 -356 -344 -470 -550 0 0 0 0 0 -325 -72 -75 -215 -210 -172 -162 -226 -276 -199 -137
0 0 0 0 0 0 0 0 0 0 0 0 0 0 0 0 0 0 -7 -7 -364 -223 -224 -246 -271 -292 -331 -522 0 0 0 0 0 -294 -238 -166 -193 -159 -174 -165 -170 -111 -51 -32
0 0 0 0 0 0 0 0 0 0 0 0 0 0 0 0 -80 -398 -408 -499 -435 -229 -214 -178 -175 -187 -235 -461 -493 0 0 0 0 0 -79 -252 -180 -82 -124 -85 -92 -71 -9 -69
0 0 0 0 0 0 0 0 0 0 0 0 0 0 0 -83 -411 -459 0 0 0 0 -317 -174 -162 -211 -273 -480 0 0 0 0 0 0 0 0 0 -145 -167 0 0 0 -81 -190
0 0 0 0 0 0 0 0 0 0 0 0 0 0 0 -426 -488 -369 -470 -324 -67 0 0 0 0 -225 -342 -449 0 0 0 0 0 0 0 0 0 0 0 0 0 0 0 0
0 0 0 0 0 0 0 0 0 0 0 0 0 0 0 0 0 0 0 0 0 0 -5 -129 -163 -285 -294 -416 0 0 0 0 0 0 0 0 0 0 0 0 0 0 -17 -3
0 0 0 0 0 0 0 0 0 0 0 -212 0 0 0 0 0 0 0 0 0 -16 -278 -138 -216 -221 -220 -472 -269 -158 0 0 0 0 0 0 0 -19 -6 0 0 0 -37 -31
0 0 0 0 0 0 0 0 0 0 0 0 0 0 0 0 0 0 0 0 0 -202 -183 -144 -211 -197 -241 -345 -351 -360 -395 -184 0 0 0 0 0 -5 -30 -23 -37 -3 -31 -37
0 0 0 0 0 0 0 0 0 0 0 0 0 0 0 0 0 0 0 0 0 0 -62 -189 -179 -176 -184 -235 -259 -342 -263 -294 -66 0 0 0 0 0 0 0 0 -42 -50 -52
0 0 0 0 0 0 0 0 0 0 0 0 0 0 0 0 0 0 0 0 0 -204 -193 -235 -222 -180 -137 -225 -182 -206 -198 0 0 0 0 0 0 0 0 -6 -89 0 0 0
0 0 0 0 0 0 0 0 0 0 0 0 0 0 0 0 0 -80 -117 -54 0 -146 -246 -300 -267 -258 -204 -231 -191 -197 -177 -228 -102 0 0 0 0 0 0 0 0 0 0 0
0 0 0 0 0 0 0 0 0 0 0 0 0 0 0 0 0 -175 -181 -217 -192 -171 -223 -263 -306 0 0 0 -208 -199 -175 -143 -145 -162 -254 0 0 0 0 0 0 0 0 0
Wind_Speed
3 3 3 10 8 5 3 4 6 6 8 5 5 7 10 9 5 9 6 7 7 5 6 12 12 14 15 13 15 15 12 9 9 4 4 3 3 3 2 4 8 7 7 7
4 2 6 10 6 4 2 2 9 9 8 6 4 5 7 9 8 9 4 7 8 5 5 11 13 13 15 17 16 14 15 12 10 9 5 4 4 3 3 4 7 11 10 9
4 6 5 13 11 7 6 6 6 6 10 7 6 6 4 7 9 11 13 5 9 10 11 8 13 15 13 15 16 15 16 15 12 9 4 3 3 1 2 4 3 8 11 12
6 5 8 7 10 14 4 12 8 12 6 6 8 4 6 8 12 14 16 13 12 10 11 8 9 10 14 15 13 12 11 13 11 9 9 7 6 5 4 4 4 6 11 9
7 6 7 6 4 11 7 3 5 8 5 6 4 4 6 6 8 14 14 17 18 13 13 13 12 12 14 13 11 9 11 11 12 13 11 9 5 5 4 1 3 5 5 9
9 6 4 6 9 5 2 4 9 5 4 5 7 7 6 7 8 5 5 6 9 11 13 13 9 3 2 8 8 8 12 14 11 13 12 12 11 8 5 5 4 3 3 4
6 7 5 5 4 6 8 6 4 6 5 7 6 5 9 7 7 9 9 9 9 8 12 15 11 8 7 12 14 11 13 8 9 13 12 11 11 10 10 8 5 7 5 4
3 7 3 5 8 5 1 7 6 3 3 4 4 5 6 8 10 10 7 8 9 5 4 7 12 11 11 14 16 17 17 9 9 11 8 8 10 8 5 5 5 5 3 5
4 6 3 5 5 6 3 1 6 4 1 4 3 3 5 2 2 3 6 8 9 6 7 8 8 10 8 11 12 13 11 6 9 12 9 9 8 9 8 7 5 4 3 3
2 3 3 7 5 5 6 3 5 5 2 3 6 3 6 6 8 6 4 9 6 6 6 6 4 4 1 2 3 4 4 3 4 10 12 10 10 8 5 6 5 6 5 5
2 3 10 4 5 5 3 3 5 5 6 5 2 8 9 10 10 9 6 7 9 8 7 7 6 5 5 4 4 2 1 1 4 11 13 12 10 11 8 5 7 5 5 6
9 6 2 6 6 5 4 0 2 7 7 1 4 8 6 4 6 11 8 8 6 8 8 7 7 6 6 6 5 5 2 1 3 6 10 13 12 10 4 1 2 5 7 7
4 2 4 13 11 7 7 5 3 5 3 3 5 8 9 7 9 6 11 7 8 7 8 6 6 6 7 6 6 5 2 2 4 4 10 9 13 13 9 10 14 6 5 4
9 4 8 8 9 4 6 7 4 5 3 3 7 4 2 4 9 6 7 8 9 8 7 6 5 6 5 6 6 6 5 3 3 5 5 8 8 9 13 14 12 10 8 4
6 6 6 8 9 3 2 4 7 4 7 6 9 9 9 8 10 8 8 7 6 7 7 8 7 6 6 6 6 3 3 1 2 4 5 7 6 8 12 11 10 10 12 11
3 3 6 3 6 2 4 5 7 7 6 2 6 3 7 6 4 5 5 7 7 8 9 7 7 8 8 8 7 6 3 2 2 3 3 3 10 10 11 10 10 12 12 13
4 4 2 7 5 5 6 7 7 7 8 8 7 10 7 5 7 7 6 7 6 6 7 9 10 9 8 9 8 6 5 4 2 3 3 2 4 8 8 9 6 6 10 9
4 3 4 6 3 4 13 5 7 6 1 5 7 6 6 7 4 5 5 6 5 4 6 7 7 6 7 6 7 6 5 4 4 4 5 4 4 3 5 9 8 8 8 10
5 5 3 5 6 6 4 6 5 5 6 4 11 8 7 7 4 2 7 5 3 5 6 5 6 7 7 8 7 7 6 5 5 5 5 4 3 4 4 5 7 5 5 5
4 4 6 2 3 7 10 9 7 5 4 6 8 7 7 5 1 6 5 4 6 6 5 6 6 5 6 6 6 8 7 6 6 5 5 5 5 4 4 4 3 2 3 3
6 5 1 3 5 9 7 4 4 4 11 7 8 8 7 5 7 7 8 7 4 4 7 6 7 9 7 8 8 7 6 7 7 6 6 5 6 6 6 5 4 4 4 4
4 1 2 2 3 5 5 6 4 9 4 8 6 6 6 7 7 7 8 6 4 6 5 6 7 7 7 9 7 7 9 7 7 7 7 6 5 4 5 6 5 5 5 6
1 6 4 7 6 8 7 6 2 4 4 3 4 4 5 6 6 7 7 9 8 7 6 6 8 8 7 9 9 8 8 7 7 7 7 7 6 6 5 5 5 3 4 4
5 2 2 5 7 5 3 3 4 3 3 2 2 2 1 2 5 7 6 7 6 4 6 6 7 7 8 8 9 9 7 7 8 8 8 7 7 6 5 5 4 5 4 4
6 3 3 4 7 7 9 6 4 4 4 5 4 4 3 3 5 4 4 7 7 6 6 7 8 7 9 6 8 7 8 9 8 7 6 7 7 7 6 6 7 7 7 8
3 5 2 6 10 6 9 8 7 7 7 8 7 6 5 3 6 5 7 7 7 7 6 7 9 8 8 9 9 9 8 11 10 8 6 6 5 5 5 5 4 8 9 12
Wind_Direction
180 120 182 208 226 118 165 245 243 260 204 120 215 214 234 239 259 263 162 181 230 249 235 190 181 174 179 172 172 179 169 179 157 148 150 167 191 171 187 190 201 220 203 195
9 294 176 211 217 149 230 232 266 280 166 114 138 279 225 215 253 248 157 201 218 253 250 204 185 178 183 182 183 173 184 177 178 172 166 154 165 205 193 194 194 208 209 194
220 215 125 183 238 216 206 218 246 224 134 41 105 329 239 236 259 284 277 213 216 209 230 202 202 193 183 188 182 182 186 182 183 174 135 101 102 136 199 227 197 207 204 204
242 271 272 264 235 194 268 218 247 95 127 190 169 257 271 228 241 249 258 253 247 209 243 205 213 193 188 196 183 182 178 182 184 172 179 173 180 187 218 206 200 204 208 199
255 297 340 324 272 188 233 266 133 187 177 112 171 100 268 148 255 255 254 240 241 222 201 221 224 200 197 187 182 178 188 180 180 184 189 189 177 184 204 256 184 186 167 150
253 288 236 225 292 270 319 34 32 51 56 21 218 143 270 184 197 184 234 222 216 223 214 208 215 134 138 161 179 186 192 192 172 188 187 192 187 184 155 176 166 125 100 92
333 270 265 233 321 337 61 64 356 359 5 218 196 92 229 205 193 180 187 157 145 184 207 209 164 175 171 173 188 192 201 190 180 184 185 182 180 168 178 192 139 144 142 146
113 340 219 248 184 212 338 137 149 258 219 280 80 217 253 183 192 194 173 170 122 138 147 159 173 186 187 180 187 195 205 186 180 195 191 174 187 175 184 149 149 137 154 145
158 269 293 244 247 132 290 356 188 122 239 30 267 359 3 351 183 139 193 158 144 152 125 147 159 186 192 195 199 205 199 164 179 195 196 188 194 187 172 160 141 129 158 157
239 325 304 315 56 314 159 191 20 11 29 322 328 309 224 211 210 158 154 144 126 97 97 88 121 144 243 303 324 339 352 184 222 203 195 201 190 211 193 170 159 165 176 162
33 97 290 22 9 278 351 352 48 113 131 164 200 265 212 195 202 173 145 125 130 122 118 119 117 137 159 175 134 149 102 311 186 200 203 199 197 205 202 194 168 169 177 160
216 162 294 251 260 275 161 120 112 110 277 230 145 277 348 221 143 134 137 137 145 142 146 153 144 131 127 121 114 112 143 33 277 207 204 208 206 188 198 261 131 176 196 178
190 32 17 343 353 359 35 348 49 133 98 277 118 269 359 84 97 122 135 160 169 165 164 138 131 152 158 155 146 157 186 239 248 280 228 209 203 185 175 156 178 168 208 192
87 118 153 190 217 213 309 329 16 88 100 240 221 224 3 76 127 152 174 181 187 188 168 171 178 187 179 168 176 192 190 195 303 304 269 216 215 177 157 190 166 170 164 187
106 180 174 233 232 274 283 313 326 324 245 179 264 166 208 184 166 183 199 218 212 201 194 197 192 200 189 185 208 216 231 84 7 315 285 177 151 164 160 174 168 165 170 182
15 252 162 266 279 256 254 282 297 295 273 292 161 170 197 209 153 144 162 141 166 205 205 207 202 193 196 195 202 201 195 81 10 3 1 118 151 161 170 168 174 180 176 192
156 136 68 276 269 327 330 255 258 256 273 194 190 209 170 163 152 156 145 130 138 174 184 204 214 208 202 189 188 190 169 140 145 101 60 72 162 173 170 166 164 178 181 175
195 136 132 243 43 237 238 241 215 204 298 81 70 100 162 171 184 166 185 166 175 180 208 232 230 211 201 182 181 152 152 155 158 139 125 137 126 144 169 140 172 176 166 170
137 117 230 173 201 276 305 245 189 210 229 209 148 165 169 163 131 221 199 179 187 228 240 233 219 191 180 177 169 148 151 174 167 169 159 157 159 164 157 150 161 160 152 169
97 137 137 100 220 235 233 246 233 125 213 200 145 163 161 149 72 251 241 227 244 272 211 202 189 161 158 172 160 158 177 174 191 190 181 161 162 165 168 166 157 146 167 169
336 347 211 243 247 288 255 288 88 136 237 172 152 167 164 169 197 220 213 231 224 207 202 193 168 176 180 165 176 181 179 192 193 169 161 171 176 173 179 157 152 170 168 175
194 157 309 342 325 324 326 330 184 217 213 174 178 183 182 202 220 216 227 212 206 220 206 179 164 184 183 174 177 196 198 194 178 169 162 170 179 182 180 176 174 184 174 177
299 158 211 167 232 258 274 212 313 162 188 179 174 206 205 227 234 235 215 211 217 211 204 172 174 185 180 183 185 195 219 181 159 165 175 172 175 187 184 179 182 197 184 179
315 119 187 34 309 309 106 30 25 38 95 105 136 211 246 277 279 266 257 236 226 191 179 169 165 200 219 193 194 211 180 164 161 174 184 179 181 185 203 211 190 176 180 185
210 22 285 285 298 313 273 266 196 191 189 191 194 182 223 255 288 261 268 247 243 210 169 174 185 201 222 212 205 187 183 169 180 181 182 190 183 187 194 201 188 193 206 191
209 226 166 236 252 214 253 249 229 202 211 204 205 234 251 231 242 242 249 241 228 205 190 196 208 216 223 205 206 192 182 180 182 188 185 188 187 182 191 192 227 246 225 202